Regional Weather Roundup
Issued by NWS

Home | Current Version | Previous Version | Text Only | Print | Product List | Glossary Off
Versions: 1 2 3 4 5 6 7 8 9 10 11 12 13 14 15 16 17 18 19 20 21 22 23 24 25 26 27 28 29 30 31 32 33 34 35 36 37 38 39 40 41 42 43 44 45 46 47 48 49 50

000
ASUS43 KLSX 270459
RWRMO

WEATHER SUMMARY FOR MISSOURI
NATIONAL WEATHER SERVICE SPRINGFIELD MO
1100 PM CST THU FEB 26 2015

NOTE: "FAIR" INDICATES FEW OR NO CLOUDS BELOW 12,000 FEET WITH NO
       SIGNIFICANT WEATHER AND/OR OBSTRUCTIONS TO VISIBILITY.
       CURRENT SKY AND/OR WEATHER CONDITIONS ARE NOT AVAILABLE FOR
       CHILLICOTHE AND FARMINGTON.

MOZ001>031-035>038-043-044-053-054-270600-
...NORTHERN AND WESTERN MISSOURI...

CITY           SKY/WX    TMP DP  RH WIND       PRES   REMARKS
KANSAS CTY INT CLEAR      6  -3  66 N13       30.57S WCI -10
KANSAS C DTWN  CLEAR     10  -3  55 N13G20    30.60R WCI  -5
ST JOSEPH      CLEAR      3  -3  76 N5        30.62S WCI  -6
CHILLICOTHE      N/A      5  -3  69 NW6       30.59F WCI  -6
KIRKSVILLE     CLEAR      1  -5  75 NW3       30.54S

$$
MOZ066>068-077>081-088>096-101>105-270600-
...SOUTHWEST MISSOURI...

CITY           SKY/WX    TMP DP  RH WIND       PRES   REMARKS
SPRINGFIELD    CLEAR     14   3  61 N12       30.47R WCI   0
JOPLIN         CLEAR     16   4  59 N9        30.52R WCI   4

$$
MOZ032>034-039>042-045>050-055>058-069>072-270600-
...CENTRAL MISSOURI...

CITY           SKY/WX    TMP DP  RH WIND       PRES   REMARKS
COLUMBIA       CLEAR      9  -1  64 N12       30.53R WCI  -6
JEFFERSON CITY CLEAR     11  -1  58 N8        30.57R WCI  -1
ROLLA          CLEAR     10  -1  61 N9        30.46S WCI  -3
SEDALIA        CLEAR     10   0  63 N12       30.56R WCI  -5
OSAGE BEACH    CLEAR     12   0  57 N3        30.52R

$$
MOZ051-052-059>065-270600-
...EAST CENTRAL MISSOURI...

CITY           SKY/WX    TMP DP  RH WIND       PRES   REMARKS
ST LOUIS INTL  CLEAR     11  -1  58 NW8       30.53R WCI  -1
SPIRIT OF STL  CLEAR     10  -2  58 NW13      30.53R WCI  -5
ST CHARLES     CLEAR      9  -2  61 N13       30.54R WCI  -7

$$
MOZ072>076-082>087-097>100-106>115-270600-
...SOUTH CENTRAL AND SOUTHEAST MISSOURI...

CITY           SKY/WX    TMP DP  RH WIND       PRES   REMARKS
CAPE GIRARDEAU NOT AVBL
FARMINGTON     CLEAR     12   1  62 N7        30.47S WCI   2
POPLAR BLUFF   CLOUDY    23  10  57 N15       30.46R WCI  10
WEST PLAINS    CLEAR     15   3  59 N8        30.44R WCI   4

$$


USA.gov is the U.S. government's official web portal to all federal, state and local government web resources and services.